TimeEST,TemperatureF,Dew PointF,Humidity,Sea Level PressureIn,VisibilityMPH,Wind Direction,Wind SpeedMPH,Gust SpeedMPH,PrecipitationIn,Events,Conditions,WindDirDegrees,DateUTC
12:54 AM,30.9,28.0,89,30.41,10.0,Calm,Calm,-,N/A,,Clear,0,2012-11-17 05:54:00
1:54 AM,30.9,28.0,89,30.41,10.0,Calm,Calm,-,N/A,,Clear,0,2012-11-17 06:54:00
2:54 AM,34.0,28.9,82,30.43,10.0,Calm,Calm,-,N/A,,Clear,0,2012-11-17 07:54:00
3:54 AM,35.1,30.9,85,30.44,9.0,Calm,Calm,-,N/A,,Clear,0,2012-11-17 08:54:00
4:54 AM,35.1,28.9,78,30.45,9.0,Calm,Calm,-,N/A,,Clear,0,2012-11-17 09:54:00
5:54 AM,33.1,28.9,85,30.46,6.0,North,3.5,-,N/A,,Clear,10,2012-11-17 10:54:00
6:54 AM,35.1,8.1,33,30.48,5.0,North,3.5,-,N/A,,Haze,10,2012-11-17 11:54:00
7:54 AM,37.0,30.0,76,30.51,7.0,NNE,5.8,-,N/A,,Clear,20,2012-11-17 12:54:00
8:54 AM,42.1,33.1,70,30.52,10.0,NNE,6.9,-,N/A,,Clear,30,2012-11-17 13:54:00
9:54 AM,46.9,34.0,61,30.51,10.0,NNE,9.2,-,N/A,,Clear,30,2012-11-17 14:54:00
10:54 AM,50.0,34.0,54,30.53,10.0,NNE,9.2,-,N/A,,Clear,30,2012-11-17 15:54:00
11:54 AM,54.0,37.9,55,30.52,10.0,Variable,3.5,-,N/A,,Clear,0,2012-11-17 16:54:00
12:54 PM,55.0,36.0,49,30.49,10.0,Variable,5.8,-,N/A,,Clear,0,2012-11-17 17:54:00
1:54 PM,55.9,37.9,51,30.49,10.0,NE,9.2,-,N/A,,Clear,40,2012-11-17 18:54:00
2:54 PM,55.0,37.9,53,30.50,10.0,Calm,Calm,-,N/A,,Clear,0,2012-11-17 19:54:00
4:54 PM,51.1,37.9,61,30.51,10.0,NE,5.8,-,N/A,,Overcast,40,2012-11-17 21:54:00
5:54 PM,48.9,37.9,66,30.52,10.0,NNE,6.9,-,N/A,,Mostly Cloudy,30,2012-11-17 22:54:00
7:54 PM,46.0,39.0,76,30.53,10.0,NNE,3.5,-,N/A,,Mostly Cloudy,20,2012-11-18 00:54:00
8:54 PM,44.1,39.0,82,30.53,10.0,NNE,4.6,-,N/A,,Clear,20,2012-11-18 01:54:00
9:54 PM,44.1,39.0,82,30.51,10.0,NNE,4.6,-,N/A,,Clear,20,2012-11-18 02:54:00
10:54 PM,43.0,39.0,86,30.51,10.0,NNE,4.6,-,N/A,,Clear,20,2012-11-18 03:54:00
11:24 PM,44.6,39.2,81,30.49,10.0,NNE,5.8,-,N/A,,Mostly Cloudy,30,2012-11-18 04:24:00
11:54 PM,44.1,41.0,89,30.50,10.0,NNE,3.5,-,N/A,,Overcast,30,2012-11-18 04:54:00